N4XWC Weather Reports


Display with metric or nautical units.
time (UTC)temp
F
wind
direction
speed
MPH
gust
MPH
rain 1hr
in
rain 24hr
in
rain mn
in
humidity
%
barometer
mb
20260905032222 84 64 0.0 1.0 0.00 0.01 0.01 75 1013.2
20260905032155 84 64 0.0 1.0 0.00 0.01 0.01 75 1013.2
20260905031723 84 64 2.0 2.0 0.00 0.01 0.01 75 1013.2
20260905031222 84 80 1.0 2.0 0.00 0.01 0.01 75 1013.4
20260905031157 84 106 1.0 1.0 0.00 0.01 0.01 75 1013.4
20260905030723 84 86 1.0 1.0 0.00 0.01 0.01 75 1013.4
20260905030222 84 97 0.0 1.0 0.00 0.01 0.01 74 1013.4
20260905030157 84 65 0.0 2.0 0.00 0.01 0.01 74 1013.4
20260905025723 84 78 1.0 2.0 0.00 0.01 0.01 75 1013.5
20260905025223 84 48 1.0 2.0 0.00 0.01 0.01 74 1013.5
20260905025156 84 83 1.0 2.0 0.00 0.01 0.01 74 1013.5
20260905024723 84 79 2.0 2.0 0.00 0.01 0.01 75 1013.5
20260905024222 84 56 2.0 2.0 0.00 0.01 0.01 74 1013.6
20260905024157 84 69 1.0 2.0 0.00 0.01 0.01 74 1013.6
20260905023722 84 83 2.0 2.0 0.00 0.01 0.01 74 1013.6
20260905023223 84 73 1.0 2.0 0.00 0.01 0.01 74 1013.6
20260905023156 84 68 1.0 2.0 0.00 0.01 0.01 74 1013.6
20260905022722 84 100 2.0 2.0 0.00 0.01 0.01 74 1013.4
20260905022222 84 32 1.0 2.0 0.00 0.01 0.01 74 1013.4
20260905022155 84 65 1.0 1.0 0.00 0.01 0.01 74 1013.4
20260905021722 84 55 1.0 1.0 0.00 0.01 0.01 74 1013.4
20260905021223 84 97 0.0 1.0 0.00 0.01 0.01 73 1013.5
20260905021156 84 107 1.0 2.0 0.00 0.01 0.01 73 1013.5
20260905020723 84 96 1.0 3.0 0.00 0.01 0.01 73 1013.5
20260905020222 84 76 2.0 3.0 0.00 0.01 0.01 73 1013.5
20260905020157 84 79 2.0 2.0 0.00 0.01 0.01 73 1013.5
20260905015723 84 61 0.0 0.0 0.00 0.01 0.01 73 1013.4
20260905015223 84 58 2.0 3.0 0.00 0.01 0.01 73 1013.4
20260905015156 84 37 1.0 2.0 0.00 0.01 0.01 73 1013.4
20260905014722 84 55 2.0 3.0 0.00 0.01 0.01 73 1013.4
20260905014224 84 16 0.0 1.0 0.00 0.01 0.01 73 1013.2
20260905014156 84 16 2.0 2.0 0.00 0.01 0.01 73 1013.2
20260905013722 84 16 1.0 2.0 0.00 0.01 0.01 73 1013.2
20260905013223 84 14 1.0 2.0 0.00 0.01 0.01 73 1013.2
20260905013156 84 10 2.0 2.0 0.00 0.01 0.01 73 1013.2
20260905012725 84 8 1.0 2.0 0.00 0.01 0.01 73 1013.1
20260905012223 85 8 1.0 3.0 0.00 0.01 0.01 73 1013.1
20260905012157 85 13 2.0 3.0 0.00 0.01 0.01 73 1013.1
20260905011724 85 17 2.0 2.0 0.00 0.01 0.01 74 1013.1
20260905011223 85 14 1.0 2.0 0.00 0.01 0.01 73 1013.1
20260905011156 85 14 1.0 2.0 0.00 0.01 0.01 73 1013.1
20260905010723 85 6 1.0 2.0 0.00 0.01 0.01 73 1013.1
20260905010223 85 0 2.0 2.0 0.00 0.01 0.01 74 1013.1
20260905010157 85 0 2.0 2.0 0.00 0.01 0.01 74 1013.1
20260905005724 85 0 2.0 2.0 0.00 0.01 0.01 73 1013.1
20260905005222 85 4 1.0 3.0 0.00 0.01 0.01 72 1013.1
20260905005156 85 6 2.0 3.0 0.00 0.01 0.01 72 1013.1
20260905004723 85 4 2.0 3.0 0.00 0.01 0.01 72 1013.1
20260905004224 85 356 2.0 3.0 0.00 0.01 0.01 73 1013.0
20260905004156 86 356 2.0 2.0 0.00 0.01 0.01 73 1013.0
20260905003722 86 357 1.0 2.0 0.01 0.01 0.01 73 1013.0
20260905003223 86 356 1.0 2.0 0.01 0.01 0.01 73 1013.0
20260905003157 86 357 1.0 2.0 0.01 0.01 0.01 73 1013.0
20260905002723 86 357 2.0 3.0 0.01 0.01 0.01 72 1013.1
20260905002224 86 0 2.0 3.0 0.01 0.01 0.01 70 1013.1
20260905002157 86 0 2.0 3.0 0.01 0.01 0.01 70 1013.1
20260905001723 86 0 2.0 3.0 0.01 0.01 0.01 70 1013.1
20260905001223 86 0 1.0 2.0 0.01 0.01 0.01 70 1013.0
20260905001156 86 0 1.0 2.0 0.01 0.01 0.01 70 1013.0
20260905000724 87 0 1.0 2.0 0.01 0.01 0.01 70 1013.0
20260905000222 87 0 0.0 0.0 0.01 0.01 0.01 70 1013.0
20260905000156 87 0 0.0 0.0 0.01 0.01 0.01 70 1013.0
20260904235723 87 0 0.0 0.0 0.01 0.01 0.01 71 1013.0
20260904235224 87 0 0.0 0.0 0.01 0.01 0.01 71 1013.0
20260904235156 88 0 0.0 0.0 0.01 0.01 0.01 71 1013.0
20260904234722 88 0 1.0 2.0 0.01 0.01 0.01 71 1013.0
20260904234235 88 10 1.0 2.0 0.01 0.01 0.01 70 1013.0
20260904234223 88 10 1.0 2.0 0.01 0.01 0.01 70 1013.0
20260904234156 88 10 1.0 2.0 0.01 0.01 0.01 70 1013.0
20260904233723 88 8 1.0 2.0 0.01 0.01 0.01 69 1013.0
20260904233222 89 59 1.0 1.0 0.00 0.00 0.00 69 1013.0
20260904233157 89 59 1.0 1.0 0.00 0.00 0.00 69 1013.0
20260904232723 89 59 0.0 0.0 0.00 0.00 0.00 69 1012.9
20260904232223 89 59 0.0 0.0 0.00 0.00 0.00 68 1012.9
20260904232156 89 59 0.0 0.0 0.00 0.00 0.00 68 1012.9
20260904231724 89 59 0.0 0.0 0.00 0.00 0.00 67 1012.9
20260904231223 89 49 0.0 0.0 0.00 0.00 0.00 67 1012.6
20260904231155 89 49 0.0 0.0 0.00 0.00 0.00 67 1012.6
20260904230723 90 49 0.0 1.0 0.00 0.00 0.00 67 1012.6
20260904230224 90 56 0.0 3.0 0.00 0.00 0.00 66 1012.6
20260904230157 90 59 2.0 3.0 0.00 0.00 0.00 66 1012.6
20260904225723 90 1 1.0 1.0 0.00 0.00 0.00 66 1012.6
20260904225223 90 31 1.0 1.0 0.00 0.00 0.00 65 1012.6
20260904225156 90 27 1.0 2.0 0.00 0.00 0.00 65 1012.6
20260904224723 90 0 1.0 1.0 0.00 0.00 0.00 65 1012.6
20260904224233 90 13 2.0 2.0 0.00 0.00 0.00 65 1012.5
20260904224223 90 17 0.0 2.0 0.00 0.00 0.00 65 1012.5
20260904224157 90 13 2.0 2.0 0.00 0.00 0.00 65 1012.5
20260904223724 90 1 2.0 2.0 0.00 0.00 0.00 64 1012.5
20260904223223 90 88 1.0 3.0 0.00 0.00 0.00 63 1012.5
20260904223155 90 76 1.0 3.0 0.00 0.00 0.00 63 1012.5
20260904222723 90 7 2.0 4.0 0.00 0.00 0.00 64 1012.5
20260904222224 90 76 1.0 3.0 0.00 0.00 0.00 64 1012.5
20260904222157 91 97 0.0 3.0 0.00 0.00 0.00 64 1012.5
20260904221722 91 75 1.0 2.0 0.00 0.00 0.00 62 1012.5
20260904221223 91 51 3.0 5.0 0.00 0.00 0.00 62 1012.3
20260904221156 91 90 4.0 4.0 0.00 0.00 0.00 62 1012.3
20260904220724 91 88 0.0 0.0 0.00 0.00 0.00 60 1012.3
20260904220222 91 136 1.0 1.0 0.00 0.00 0.00 63 1012.3
20260904220155 91 136 1.0 2.0 0.00 0.00 0.00 63 1012.3
20260904215723 91 62 1.0 1.0 0.00 0.00 0.00 63 1012.5
20260904215223 91 119 1.0 3.0 0.00 0.00 0.00 64 1012.5
20260904215156 91 97 3.0 3.0 0.00 0.00 0.00 64 1012.5
20260904214723 91 47 1.0 2.0 0.00 0.00 0.00 62 1012.5
20260904214222 92 65 3.0 3.0 0.00 0.00 0.00 62 1012.4
20260904214157 92 34 0.0 0.0 0.00 0.00 0.00 62 1012.4
20260904213722 92 104 3.0 3.0 0.00 0.00 0.00 61 1012.4
20260904213223 92 106 3.0 3.0 0.00 0.00 0.00 61 1012.4
20260904213156 92 86 3.0 5.0 0.00 0.00 0.00 61 1012.4
20260904212722 92 162 0.0 1.0 0.00 0.00 0.00 62 1012.4
20260904212222 92 69 1.0 2.0 0.00 0.00 0.00 60 1012.4
20260904212156 92 76 2.0 5.0 0.00 0.00 0.00 60 1012.4
20260904211722 92 51 3.0 4.0 0.00 0.00 0.00 58 1012.4
20260904211223 92 130 3.0 5.0 0.00 0.00 0.00 58 1012.6
20260904211156 92 109 2.0 3.0 0.00 0.00 0.00 58 1012.6
20260904210723 92 100 4.0 5.0 0.00 0.00 0.00 58 1012.6
20260904210222 93 49 5.0 7.0 0.00 0.00 0.00 57 1012.6
20260904210157 93 66 2.0 2.0 0.00 0.00 0.00 57 1012.6
20260904205723 93 45 2.0 2.0 0.00 0.00 0.00 61 1012.7
20260904205223 93 52 0.0 3.0 0.00 0.00 0.00 58 1012.7
20260904205156 93 82 3.0 3.0 0.00 0.00 0.00 58 1012.7
20260904204722 93 1 2.0 4.0 0.00 0.00 0.00 58 1012.7
20260904204222 93 64 4.0 5.0 0.00 0.00 0.00 57 1012.8
20260904204157 93 92 3.0 6.0 0.00 0.00 0.00 57 1012.8
20260904203722 94 112 4.0 4.0 0.00 0.00 0.00 54 1012.8
20260904203223 94 106 3.0 3.0 0.00 0.00 0.00 57 1012.8
20260904203157 94 97 1.0 3.0 0.00 0.00 0.00 57 1012.8
20260904202724 94 154 0.0 3.0 0.00 0.00 0.00 60 1013.1
20260904202222 93 114 3.0 5.0 0.00 0.00 0.00 58 1013.1
20260904202157 93 112 3.0 4.0 0.00 0.00 0.00 58 1013.1
20260904201723 93 155 1.0 2.0 0.00 0.00 0.00 59 1013.1
20260904201223 93 61 3.0 5.0 0.00 0.00 0.00 57 1013.3
20260904201156 93 89 5.0 6.0 0.00 0.00 0.00 57 1013.3
20260904200723 93 130 0.0 1.0 0.00 0.00 0.00 60 1013.3
20260904200222 93 62 3.0 4.0 0.00 0.00 0.00 58 1013.3
20260904200157 93 38 2.0 5.0 0.00 0.00 0.00 58 1013.3
20260904195723 93 78 2.0 3.0 0.00 0.00 0.00 58 1013.5
20260904195223 93 30 4.0 5.0 0.00 0.00 0.00 58 1013.5
20260904195156 93 359 5.0 7.0 0.00 0.00 0.00 58 1013.5
20260904194722 93 24 2.0 4.0 0.00 0.00 0.00 62 1013.5
20260904194224 93 164 1.0 1.0 0.00 0.00 0.00 59 1013.9
20260904194157 93 147 1.0 4.0 0.00 0.00 0.00 59 1013.9
20260904193723 93 34 2.0 2.0 0.00 0.00 0.00 58 1013.9
20260904193224 93 80 3.0 5.0 0.00 0.00 0.00 58 1013.9
20260904193157 93 123 1.0 3.0 0.00 0.00 0.00 62 1013.9
20260904192723 92 130 3.0 6.0 0.00 0.00 0.00 60 1014.2
20260904192223 92 107 3.0 3.0 0.00 0.00 0.00 59 1014.2
20260904192156 92 71 4.0 4.0 0.00 0.00 0.00 59 1014.2
20260904191724 92 158 1.0 5.0 0.00 0.00 0.00 59 1014.2
20260904191222 92 126 3.0 3.0 0.00 0.00 0.00 62 1014.4
20260904191155 92 23 1.0 2.0 0.00 0.00 0.00 62 1014.4
20260904190723 92 116 3.0 4.0 0.00 0.00 0.00 62 1014.4
20260904190224 92 113 2.0 5.0 0.00 0.00 0.00 61 1014.4
20260904190157 92 93 2.0 2.0 0.00 0.00 0.00 60 1014.4
20260904185722 92 82 4.0 6.0 0.00 0.00 0.00 60 1014.5
20260904185223 92 100 6.0 6.0 0.00 0.00 0.00 60 1014.5
20260904185156 92 117 4.0 4.0 0.00 0.00 0.00 60 1014.5
20260904184723 92 119 4.0 5.0 0.00 0.00 0.00 59 1014.5
20260904184223 92 113 2.0 3.0 0.00 0.00 0.00 63 1014.8
20260904184156 92 14 1.0 1.0 0.00 0.00 0.00 63 1014.8
20260904183724 92 136 4.0 4.0 0.00 0.00 0.00 62 1014.8
20260904183223 92 167 0.0 2.0 0.00 0.00 0.00 61 1014.8
20260904183155 92 356 2.0 3.0 0.00 0.00 0.00 61 1014.8
20260904182723 92 37 3.0 3.0 0.00 0.00 0.00 63 1014.9
20260904182224 92 65 2.0 7.0 0.00 0.00 0.00 62 1014.9
20260904182157 92 151 4.0 4.0 0.00 0.00 0.00 62 1014.9
20260904181723 92 179 0.0 2.0 0.00 0.00 0.00 62 1014.9
20260904181222 92 121 1.0 3.0 0.00 0.00 0.00 62 1015.0
20260904181155 92 134 0.0 5.0 0.00 0.00 0.00 63 1015.0
20260904180723 92 144 0.0 4.0 0.00 0.00 0.00 61 1015.0
20260904180223 92 79 0.0 1.0 0.00 0.00 0.00 63 1015.0
20260904180156 92 120 0.0 0.0 0.00 0.00 0.00 65 1015.0
20260904175722 92 83 2.0 2.0 0.00 0.00 0.00 64 1015.2
20260904175223 92 79 2.0 4.0 0.00 0.00 0.00 62 1015.2
20260904175156 92 141 2.0 2.0 0.00 0.00 0.00 62 1015.2
20260904174722 92 123 0.0 0.0 0.00 0.00 0.00 61 1015.2
20260904174223 92 144 1.0 1.0 0.00 0.00 0.00 64 1015.4
20260904174156 92 144 1.0 3.0 0.00 0.00 0.00 64 1015.4
20260904173724 92 185 3.0 3.0 0.00 0.00 0.00 64 1015.4
20260904173222 92 203 0.0 0.0 0.00 0.00 0.00 64 1015.4
20260904173155 92 203 0.0 0.0 0.00 0.00 0.00 60 1015.4
20260904172723 92 49 1.0 2.0 0.00 0.00 0.00 60 1015.6
20260904172224 92 0 0.0 0.0 0.00 0.00 0.00 60 1015.6
20260904172156 92 0 0.0 1.0 0.00 0.00 0.00 60 1015.6
20260904171722 92 85 1.0 3.0 0.00 0.00 0.00 60 1015.6
20260904171223 92 130 3.0 4.0 0.00 0.00 0.00 63 1015.8
20260904171156 92 123 3.0 3.0 0.00 0.00 0.00 63 1015.8
20260904170722 92 288 1.0 3.0 0.00 0.00 0.00 64 1015.8
20260904170223 92 96 2.0 2.0 0.00 0.00 0.00 62 1015.8
20260904170156 92 0 0.0 0.0 0.00 0.00 0.00 63 1015.8
20260904165722 91 0 0.0 0.0 0.00 0.00 0.00 62 1016.0
20260904165223 91 41 0.0 1.0 0.00 0.00 0.00 61 1016.0
20260904165155 91 92 1.0 1.0 0.00 0.00 0.00 62 1016.0
20260904164723 91 126 0.0 2.0 0.00 0.00 0.00 59 1016.0
20260904164222 91 100 2.0 3.0 0.00 0.00 0.00 60 1016.1
20260904164157 91 69 3.0 3.0 0.00 0.00 0.00 61 1016.1
20260904163722 90 11 2.0 2.0 0.00 0.00 0.00 64 1016.1
20260904163223 90 20 1.0 2.0 0.00 0.00 0.00 66 1016.1
20260904163156 90 20 1.0 2.0 0.00 0.00 0.00 66 1016.1
20260904162722 90 282 0.0 1.0 0.00 0.00 0.00 65 1016.1
20260904162223 90 140 1.0 1.0 0.00 0.00 0.00 68 1016.1
20260904162156 90 143 0.0 0.0 0.00 0.00 0.00 68 1016.1
20260904161722 90 144 0.0 1.0 0.00 0.00 0.00 69 1016.1
20260904161223 90 227 0.0 0.0 0.00 0.00 0.00 69 1016.2
20260904161155 90 227 0.0 2.0 0.00 0.00 0.00 69 1016.2
20260904160723 90 226 0.0 1.0 0.00 0.00 0.00 69 1016.2
20260904160224 90 13 0.0 0.0 0.00 0.00 0.00 68 1016.2
20260904160157 90 13 0.0 1.0 0.00 0.00 0.00 68 1016.2
20260904155723 90 357 0.0 1.0 0.00 0.00 0.00 68 1016.3
20260904155223 89 178 1.0 1.0 0.00 0.00 0.00 69 1016.3
20260904155156 89 193 2.0 3.0 0.00 0.00 0.00 69 1016.3
20260904154724 89 114 1.0 2.0 0.00 0.00 0.00 69 1016.3
20260904154223 89 215 1.0 2.0 0.00 0.00 0.00 69 1016.3
20260904154155 89 191 0.0 1.0 0.00 0.00 0.00 69 1016.3
20260904153724 90 216 0.0 2.0 0.00 0.00 0.00 68 1016.3
20260904153223 90 162 1.0 1.0 0.00 0.00 0.00 67 1016.3
20260904153157 90 155 1.0 2.0 0.00 0.00 0.00 67 1016.3
20260904152723 90 198 0.0 1.0 0.00 0.00 0.00 68 1016.1
20260904152230 89 104 1.0 2.0 0.00 0.00 0.00 68 1016.1
20260904152224 89 104 1.0 1.0 0.00 0.00 0.00 67 1016.1
20260904152156 89 104 1.0 2.0 0.00 0.00 0.00 68 1016.1
20260904151723 89 137 2.0 2.0 0.00 0.00 0.00 69 1016.1
20260904151222 88 102 1.0 1.0 0.00 0.00 0.00 68 1016.0
20260904151156 88 141 0.0 0.0 0.00 0.00 0.00 68 1016.0
20260904150723 88 151 1.0 1.0 0.00 0.00 0.00 70 1016.0
20260904150224 88 134 1.0 2.0 0.00 0.00 0.00 70 1016.0
20260904150155 87 151 2.0 2.0 0.00 0.00 0.00 71 1016.0
20260904145722 87 196 0.0 0.0 0.00 0.00 0.00 72 1015.9
20260904145223 86 112 1.0 1.0 0.00 0.00 0.00 74 1015.9
20260904145159 86 150 1.0 3.0 0.00 0.00 0.00 74 1015.9
20260904144724 86 251 0.0 1.0 0.00 0.00 0.00 74 1015.9
20260904144223 85 195 0.0 1.0 0.00 0.00 0.00 73 1015.9
20260904144156 85 184 0.0 1.0 0.00 0.00 0.00 73 1015.9
20260904143724 85 138 1.0 1.0 0.00 0.00 0.00 74 1015.9
20260904143245 84 154 0.0 0.0 0.00 0.00 0.00 75 1015.9
20260904143223 84 154 0.0 0.0 0.00 0.00 0.00 75 1015.9
20260904143156 84 154 0.0 0.0 0.00 0.00 0.00 75 1015.9
20260904142723 84 155 0.0 2.0 0.00 0.00 0.00 75 1015.9
20260904142224 84 230 1.0 1.0 0.00 0.00 0.00 75 1015.9
20260904142156 84 230 1.0 2.0 0.00 0.00 0.00 75 1015.9
20260904141722 84 178 0.0 0.0 0.00 0.00 0.00 74 1015.9
20260904141222 84 140 0.0 0.0 0.00 0.00 0.00 74 1015.8
20260904141158 84 140 0.0 1.0 0.00 0.00 0.00 74 1015.8
20260904140723 84 172 0.0 1.0 0.00 0.00 0.00 74 1015.8
20260904140223 84 172 0.0 0.0 0.00 0.00 0.00 77 1015.8
20260904140156 84 172 0.0 4.0 0.00 0.00 0.00 76 1015.8
20260904135722 83 161 0.0 0.0 0.00 0.00 0.00 76 1015.8
20260904135222 83 130 2.0 2.0 0.00 0.00 0.00 81 1015.8
20260904135155 83 165 0.0 1.0 0.00 0.00 0.00 81 1015.8
20260904134723 83 160 0.0 0.0 0.00 0.00 0.00 80 1015.8
20260904134222 83 193 0.0 1.0 0.00 0.00 0.00 81 1015.8
20260904134159 83 193 1.0 1.0 0.00 0.00 0.00 81 1015.8
20260904133723 82 158 0.0 0.0 0.00 0.00 0.00 81 1015.8
20260904133222 82 157 1.0 1.0 0.00 0.00 0.00 81 1015.8
20260904133157 82 167 1.0 1.0 0.00 0.00 0.00 81 1015.8
20260904132723 82 151 0.0 0.0 0.00 0.00 0.00 81 1015.9
20260904132223 81 151 0.0 1.0 0.00 0.00 0.00 82 1015.9
20260904132158 81 161 0.0 0.0 0.00 0.00 0.00 82 1015.9
20260904131722 81 164 1.0 2.0 0.00 0.00 0.00 84 1015.9
20260904131223 80 109 0.0 0.0 0.00 0.00 0.00 85 1015.8
20260904131156 80 109 0.0 0.0 0.00 0.00 0.00 85 1015.8
20260904130722 80 109 0.0 0.0 0.00 0.00 0.00 84 1015.8
20260904130223 79 126 2.0 2.0 0.00 0.00 0.00 86 1015.8
20260904130157 79 126 1.0 2.0 0.00 0.00 0.00 86 1015.8
20260904125723 79 150 1.0 1.0 0.00 0.00 0.00 87 1015.8
20260904125222 78 133 2.0 2.0 0.00 0.00 0.00 88 1015.8
20260904125157 78 164 1.0 2.0 0.00 0.00 0.00 88 1015.8
20260904124723 78 158 0.0 2.0 0.00 0.00 0.00 88 1015.8
20260904124222 78 138 1.0 2.0 0.00 0.00 0.00 88 1015.6
20260904124156 78 134 2.0 2.0 0.00 0.00 0.00 88 1015.6
20260904123723 78 141 1.0 2.0 0.00 0.00 0.00 88 1015.6
20260904123224 77 124 1.0 2.0 0.00 0.00 0.00 88 1015.6
20260904123156 77 116 2.0 2.0 0.00 0.00 0.00 88 1015.6
20260904122722 77 106 0.0 2.0 0.00 0.00 0.00 89 1015.4
20260904122223 77 110 0.0 0.0 0.00 0.00 0.00 90 1015.4
20260904122156 77 104 0.0 0.0 0.00 0.00 0.00 90 1015.4
20260904121722 77 145 0.0 0.0 0.00 0.00 0.00 90 1015.4
20260904121223 77 96 0.0 0.0 0.00 0.00 0.00 90 1015.2
20260904121157 76 117 0.0 0.0 0.00 0.00 0.00 90 1015.2
20260904120724 76 102 0.0 0.0 0.00 0.00 0.00 91 1015.2
20260904120222 76 79 1.0 1.0 0.00 0.00 0.00 91 1015.2
20260904120158 76 89 1.0 2.0 0.00 0.00 0.00 91 1015.2
20260904115723 76 72 0.0 2.0 0.00 0.00 0.00 91 1015.0
20260904115223 76 117 1.0 2.0 0.00 0.00 0.00 91 1015.0
20260904115157 76 100 2.0 2.0 0.00 0.00 0.00 91 1015.0
20260904114722 76 113 2.0 2.0 0.00 0.00 0.00 91 1015.0
20260904114223 76 107 0.0 0.0 0.00 0.00 0.00 91 1014.8
20260904114155 76 130 0.0 0.0 0.00 0.00 0.00 91 1014.8
20260904113723 76 134 0.0 0.0 0.00 0.00 0.00 91 1014.8
20260904113224 76 100 0.0 0.0 0.00 0.00 0.00 91 1014.8
20260904113156 76 109 0.0 0.0 0.00 0.00 0.00 91 1014.8
20260904112722 76 127 0.0 2.0 0.00 0.00 0.00 91 1014.8
20260904112223 76 106 0.0 0.0 0.00 0.00 0.00 90 1014.8
20260904112156 76 107 0.0 0.0 0.00 0.00 0.00 90 1014.8
20260904111724 76 107 0.0 0.0 0.00 0.00 0.00 91 1014.8
20260904111227 76 93 2.0 2.0 0.00 0.00 0.00 91 1014.6
20260904111222 76 100 1.0 2.0 0.00 0.00 0.00 91 1014.6
20260904111155 76 93 2.0 2.0 0.00 0.00 0.00 91 1014.6
20260904110723 76 100 0.0 1.0 0.00 0.00 0.00 91 1014.6
20260904110224 76 104 2.0 2.0 0.00 0.00 0.00 91 1014.6
20260904110157 76 104 1.0 2.0 0.00 0.00 0.00 91 1014.6
20260904105722 76 121 0.0 2.0 0.00 0.00 0.00 91 1014.6
20260904105223 76 127 1.0 2.0 0.00 0.00 0.00 91 1014.6
20260904105157 76 134 0.0 1.0 0.00 0.00 0.00 91 1014.6
20260904104724 76 138 2.0 2.0 0.00 0.00 0.00 91 1014.6
20260904104222 76 145 0.0 1.0 0.00 0.00 0.00 91 1014.4
20260904104155 76 145 0.0 0.0 0.00 0.00 0.00 91 1014.4
20260904103723 76 145 0.0 0.0 0.00 0.00 0.00 91 1014.4
20260904103224 76 145 0.0 0.0 0.00 0.00 0.00 91 1014.4
20260904103156 76 145 0.0 0.0 0.00 0.00 0.00 91 1014.4
20260904102723 76 145 0.0 0.0 0.00 0.00 0.00 91 1014.4
20260904102224 76 145 0.0 0.0 0.00 0.00 0.00 91 1014.4
20260904102157 76 145 0.0 0.0 0.00 0.00 0.00 91 1014.4
20260904101723 76 145 0.0 0.0 0.00 0.00 0.00 91 1014.4
20260904101223 76 145 1.0 1.0 0.00 0.00 0.00 91 1014.0
20260904101156 76 145 0.0 1.0 0.00 0.00 0.00 91 1014.0
20260904100722 76 145 0.0 1.0 0.00 0.00 0.00 91 1014.0
20260904100223 76 145 0.0 0.0 0.00 0.00 0.00 91 1014.0
20260904100156 76 145 0.0 0.0 0.00 0.00 0.00 91 1014.0
20260904095722 76 145 0.0 1.0 0.00 0.00 0.00 90 1014.0
20260904095229 76 145 0.0 0.0 0.00 0.00 0.00 90 1014.0
20260904095223 76 145 0.0 0.0 0.00 0.00 0.00 90 1014.0
20260904095155 76 145 0.0 0.0 0.00 0.00 0.00 90 1014.0
20260904094723 76 145 1.0 1.0 0.00 0.00 0.00 90 1014.0
20260904094509 76 147 0.0 0.0 0.00 0.00 0.00 90 1014.0
20260904094232 76 147 0.0 0.0 0.00 0.00 0.00 90 1014.0
20260904094223 76 145 0.0 0.0 0.00 0.00 0.00 90 1014.0
20260904094156 76 147 0.0 0.0 0.00 0.00 0.00 90 1014.0
20260904093724 77 147 0.0 0.0 0.00 0.00 0.00 90 1014.0
20260904093222 77 147 0.0 0.0 0.00 0.00 0.00 89 1014.0
20260904093155 77 147 0.0 0.0 0.00 0.00 0.00 89 1014.0
20260904092723 77 143 0.0 0.0 0.00 0.00 0.00 89 1014.0
20260904092224 77 141 0.0 1.0 0.00 0.00 0.00 88 1014.0
20260904092156 77 141 1.0 1.0 0.00 0.00 0.00 88 1014.0
20260904091722 77 141 2.0 2.0 0.00 0.00 0.00 88 1014.0
20260904091223 77 152 1.0 2.0 0.00 0.00 0.00 88 1013.8
20260904091156 77 141 1.0 2.0 0.00 0.00 0.00 88 1013.8
20260904090722 77 144 3.0 3.0 0.00 0.00 0.00 87 1013.8
20260904090223 78 145 0.0 2.0 0.00 0.00 0.00 87 1013.8
20260904090156 78 161 0.0 1.0 0.00 0.00 0.00 87 1013.8
20260904085722 78 145 0.0 1.0 0.00 0.00 0.00 87 1013.8
20260904085222 78 174 1.0 2.0 0.00 0.00 0.00 86 1013.8
20260904085156 78 157 1.0 3.0 0.00 0.00 0.00 86 1013.8
20260904084723 78 127 1.0 3.0 0.00 0.00 0.00 86 1013.8
20260904084222 78 126 2.0 3.0 0.00 0.00 0.00 86 1013.9
20260904084157 78 119 1.0 2.0 0.00 0.00 0.00 86 1013.9
20260904083722 78 117 1.0 2.0 0.00 0.00 0.00 86 1013.9
20260904083222 78 113 0.0 2.0 0.00 0.00 0.00 85 1013.9
20260904083157 78 88 0.0 2.0 0.00 0.00 0.00 85 1013.9
20260904082723 78 117 1.0 2.0 0.00 0.00 0.00 85 1013.9
20260904082223 78 126 2.0 2.0 0.00 0.00 0.00 85 1013.9
20260904082156 78 75 2.0 2.0 0.00 0.00 0.00 85 1013.9
20260904081722 78 119 1.0 2.0 0.00 0.00 0.00 85 1013.9
20260904081223 78 120 2.0 2.0 0.00 0.00 0.00 85 1013.9
20260904081156 78 124 1.0 2.0 0.00 0.00 0.00 85 1013.9
20260904080723 78 134 3.0 3.0 0.00 0.00 0.00 84 1013.9
20260904080222 78 137 2.0 2.0 0.00 0.00 0.00 84 1013.9
20260904080200 78 127 2.0 3.0 0.00 0.00 0.00 84 1013.9
20260904075722 78 90 0.0 0.0 0.00 0.00 0.00 84 1013.9
20260904075223 78 102 0.0 0.0 0.00 0.00 0.00 83 1013.9
20260904075156 78 86 0.0 1.0 0.00 0.00 0.00 83 1013.9
20260904074722 78 127 2.0 2.0 0.00 0.00 0.00 83 1013.9
20260904074227 78 104 1.0 3.0 0.00 0.00 0.00 82 1013.9
20260904074223 78 114 3.0 3.0 0.00 0.00 0.00 82 1013.9
20260904074156 78 104 1.0 3.0 0.00 0.00 0.00 82 1013.9
20260904073723 78 127 0.0 2.0 0.00 0.00 0.00 82 1013.9
20260904073222 78 120 1.0 3.0 0.00 0.00 0.00 81 1013.9
20260904073157 78 107 2.0 3.0 0.00 0.00 0.00 81 1013.9
20260904072723 78 89 2.0 3.0 0.00 0.00 0.00 81 1013.9
20260904072223 78 114 1.0 2.0 0.00 0.00 0.00 82 1013.9
20260904072158 78 120 1.0 2.0 0.00 0.00 0.00 82 1013.9
20260904071723 78 109 2.0 3.0 0.00 0.00 0.00 82 1013.9
20260904071224 79 82 0.0 1.0 0.00 0.00 0.00 83 1013.9
20260904071157 79 112 1.0 2.0 0.00 0.00 0.00 83 1013.9
20260904070722 79 112 1.0 2.0 0.00 0.00 0.00 83 1013.9
20260904070223 79 96 1.0 1.0 0.00 0.00 0.00 82 1013.9
20260904070156 79 90 1.0 2.0 0.00 0.00 0.00 82 1013.9
20260904065724 79 92 3.0 3.0 0.00 0.00 0.00 83 1013.9
20260904065222 79 58 3.0 3.0 0.00 0.00 0.00 83 1013.9
20260904065158 79 72 2.0 3.0 0.00 0.00 0.00 82 1013.9
20260904064723 79 76 2.0 2.0 0.00 0.00 0.00 82 1013.9
20260904064223 79 85 1.0 2.0 0.00 0.00 0.00 82 1013.9
20260904064157 79 86 1.0 1.0 0.00 0.00 0.00 82 1013.9
20260904063723 79 83 1.0 2.0 0.00 0.00 0.00 82 1013.9
20260904063224 79 88 1.0 1.0 0.00 0.00 0.00 82 1013.9
20260904063159 79 88 1.0 2.0 0.00 0.00 0.00 82 1013.9
20260904062723 79 96 1.0 2.0 0.00 0.00 0.00 82 1014.0
20260904062223 80 71 0.0 1.0 0.00 0.00 0.00 81 1014.0
20260904062156 80 71 1.0 1.0 0.00 0.00 0.00 81 1014.0
20260904061723 80 71 0.0 1.0 0.00 0.00 0.00 80 1014.0
20260904061224 80 71 0.0 1.0 0.00 0.00 0.00 80 1013.9
20260904061156 80 72 1.0 1.0 0.00 0.00 0.00 80 1013.9
20260904060722 80 80 2.0 2.0 0.00 0.00 0.00 80 1013.9
20260904060223 80 66 1.0 2.0 0.00 0.00 0.00 80 1013.9
20260904060156 80 56 1.0 1.0 0.00 0.00 0.00 80 1013.9
20260904055724 80 82 1.0 3.0 0.00 0.00 0.00 80 1014.1
20260904055222 80 93 1.0 2.0 0.00 0.00 0.00 80 1014.1
20260904055157 80 103 1.0 2.0 0.00 0.00 0.00 80 1014.1
20260904054724 80 100 1.0 1.0 0.00 0.00 0.00 80 1014.1
20260904054224 80 88 2.0 2.0 0.00 0.00 0.00 80 1014.2
20260904054155 80 97 0.0 2.0 0.00 0.00 0.00 80 1014.2
20260904053722 80 92 1.0 2.0 0.00 0.00 0.00 80 1014.2
20260904053223 80 100 1.0 2.0 0.00 0.00 0.00 80 1014.2
20260904053157 80 99 1.0 1.0 0.00 0.00 0.00 80 1014.2
20260904052723 80 85 1.0 1.0 0.00 0.00 0.00 79 1014.2
20260904052222 80 83 1.0 2.0 0.00 0.00 0.00 80 1014.2
20260904052156 80 90 2.0 2.0 0.00 0.00 0.00 80 1014.2
20260904051723 80 71 1.0 2.0 0.00 0.00 0.00 80 1014.2
20260904051223 80 69 1.0 3.0 0.00 0.00 0.00 80 1014.1
20260904051155 80 78 3.0 3.0 0.00 0.00 0.00 80 1014.1
20260904050722 80 85 1.0 1.0 0.00 0.00 0.00 80 1014.1
20260904050223 80 106 0.0 1.0 0.00 0.00 0.00 80 1014.1
20260904050157 80 106 0.0 2.0 0.00 0.00 0.00 80 1014.1
20260904045723 80 116 1.0 1.0 0.00 0.00 0.00 80 1014.2
20260904045224 80 117 0.0 2.0 0.00 0.00 0.00 80 1014.2
20260904045157 80 109 0.0 2.0 0.00 0.00 0.00 80 1014.2
20260904044722 80 103 0.0 0.0 0.00 0.00 0.00 80 1014.2
20260904044223 80 99 0.0 0.0 0.00 0.00 0.00 80 1014.1
20260904044156 80 99 0.0 0.0 0.00 0.00 0.00 80 1014.1
20260904043723 80 99 1.0 2.0 0.00 0.00 0.00 79 1014.1
20260904043222 80 93 1.0 1.0 0.00 0.00 0.00 79 1014.1
20260904043156 80 93 0.0 1.0 0.00 0.00 0.00 79 1014.1
20260904042723 80 90 1.0 2.0 0.00 0.00 0.00 79 1014.2
20260904042224 79 104 0.0 0.0 0.00 0.00 0.00 79 1014.2
20260904042159 79 89 0.0 0.0 0.00 0.00 0.00 78 1014.2
20260904041722 79 79 0.0 0.0 0.00 0.00 0.00 78 1014.2
20260904041223 79 69 2.0 2.0 0.00 0.00 0.00 79 1014.4
20260904041156 79 61 1.0 2.0 0.00 0.00 0.00 79 1014.4
20260904040724 79 72 2.0 2.0 0.00 0.00 0.00 79 1014.4
20260904040222 79 62 1.0 2.0 0.00 0.00 0.00 79 1014.4
20260904040157 79 65 1.0 2.0 0.00 0.00 0.00 79 1014.4
20260904035723 79 55 0.0 2.0 0.00 0.00 0.00 79 1014.6
20260904035223 78 69 1.0 2.0 0.00 0.00 0.00 80 1014.6
20260904035156 78 64 0.0 2.0 0.00 0.00 0.00 80 1014.6
20260904034722 78 76 2.0 2.0 0.00 0.00 0.00 80 1014.6
20260904034223 78 93 1.0 3.0 0.00 0.00 0.00 81 1014.6
20260904034156 78 59 3.0 3.0 0.00 0.00 0.00 81 1014.6
20260904033723 78 56 2.0 3.0 0.00 0.00 0.00 81 1014.6
20260904033222 78 90 2.0 3.0 0.00 0.00 0.00 82 1014.6
20260904033157 78 100 1.0 2.0 0.00 0.00 0.00 82 1014.6
20260904032723 78 65 3.0 3.0 0.00 0.00 0.00 83 1014.8